SCP
0 0 0 0 0 0 0 0 0 0 0 0 0 0 0 0 0 0 -0 0 0 0 0 0 0 -0 -0 0 -0 0 -0 -0 -0 0 0 0 0 0 0 0 0 0 0 0 0 0 0
0 0 0 0 0 0 0 0 0 0 0 0 0 0 0 0 0 0 -0 0 0 0 0 0 0 -0 -0 0 -0 0 0 -0 0 0 0 0 0 0 0 0 0 0 0 0 0 0 0
0 0 0 0 0 0 0 0 0 0 0 0 0 0 0 0 0 0 0 0 0 0 0 0 0 0 -0 -0 0 0 -0 0 0 0 0 0 0 0 0 0 0 0 0 0 0 0 0
0 0 0 0 0 0 0 0 0 0 0 0 0 0 0 0 0 0 0 0 0 0 0 0 0 0 0 -0 0 0 -0 0 0 0 0 0 0 0 0 0 0 0 0 0 0 0 0
0 0 0 0 0 0 0 0 0 0 0 0 0 0 0 0 0 0 0 0 -0 -0 0 0 0 0 0 -0 0 0 -0 0 0 0 0 0 0 0 -0 0 0 0 0 0 0 0 0
0 0 0 0 0 0 0 0 0 0 0 0 0 0 0 0 0 0 0 -0 0 0 0 0 0 0 0 0 0 -0 0 0 0 0 0 0 0 0 0 0 0 0 0 0 0 0 0
0 0 0 0 0 0 0 0 0 0 0 0 0 0 0 0 0 0 0 0 0 0 0 0 0 0 0 0 -0 -0 0 0 0 0 0 0 0 0 -0 0 0 0 0 0 0 0 0
0 0 0 0 0 0 0 0 0 0 0 0 0 0 0 0 0 0 0 0 0 0 0 0 0 0 0 0 0 0 0 0 0 0 0 0 0 -0 0 0 0 0 0 0 0 0 0
0 0 0 0 0 0 0 0 0 0 0 0 0 0 0 0 0 0 0 0 0 0 0 0 0 0 0 0 0 0 0 0 0 0 0 0 0 -0 0 0 0 0 0 0 0 0 0
0 0 0 0 0 0 0 0 0 0 0 0 0 0 0 0 0 0 0 0 0 0 0 0 0 0 0 0 0 0 0 0 0 0 0 0 -0 0 0 0 0 0 0 0 0 0 0
0 0 0 0 0 0 0 0 0 0 0 0 0 0 0 0 0 0 0 0 0 0 0 0 0 0 0 0 0 0 0 0 0 0 0 0 0 0 0 0 0 0 0 0 0 0 0
0 0 0 0 0 0 0 0 0 0 0 0 0 0 0 0 0 0 0 0 0 0 0 0 0 0 0 0 0 0 0 0 0 0 0 0 0 0 0 0 0 0 0 0 0 0 0
0 0 0 0 0 0 0 0 0 0 0 0 0 0 0 0 0 0 0 0 0 0 0 0 0 0 0 0 0 0 0 0 0 0 0 0 0 0 -0 0 0 0 0 0 0 0 0
0 0 0 0 0 0 0 0 0 0 0 0 0 0 0 0 0 0 0 0 0 0 0 0 0 0 0 0 0 0 0 0 0 0 0 0 0 0 -0 0 0 0 0 0 0 0 0
0 0 0 0 0 0 0 0 0 0 0 0 0 0 0 0 0 0 0 0 0 0 0 0 0 0 0 0 0 0 0 0 0 -0 0 0 0 0 0 0 0 0 0 0 0 0 0
0 0 0 0 0 0 0 0 0 0 0 0 0 0 0 0 0 0 0 0 0 0 0 0 0 0 0 0 0 0 0 0 0 0 -0 0 0 0 0 0 0 0 0 0 0 0 0
0 0 0 0 0 0 0 0 0 0 0 0 0 0 0 0 0 0 0 0 0 0 0 0 0 0 0 0 0 0 0 0 0 0 0 0 0 0 -0 0 0 0 0 0 0 0 0
0 0 0 0 0 0 0 0 0 0 0 0 0 0 0 0 0 0 0 0 0 0 0 0 0 0 0 0 0 0 0 0 0 0 0 0 0 0 0 0 0 0 0 0 0 0 0
0 0 0 0 0 0 0 0 0 0 0 0 0 0 0 0 0 0 0 0 0 0 0 0 0 0 0 0 0 0 0 0 0 0 0 0 0 0 0 0 0 0 0 0 0 0 0
0 0 0 0 0 0 0 0 0 0 0 0 0 0 0 0 0 0 0 0 0 0 0 0 0 0 0 0 0 0 0 0 0 0 0 0 0 0 0 0 0 0 0 0 0 0 0
0 0 0 0 0 0 0 0 0 0 0 0 0 0 0 0 0 0 0 0 0 0 0 0 0 0 0 0 0 0 0 0 0 0 0 0 0 0 0 -0 0 0 0 0 0 0 0
0 0 0 0 0 0 0 0 0 0 0 0 0 0 0 0 0 0 0 0 0 0 0 0 0 0 0 0 0 0 0 0 0 0 0 0 0 0 0 0 0 0 0 -0 0 0 0
0 0 0 0 0 0 0 0 0 0 0 0 0 0 0 0 0 0 0 0 0 0 0 0 0 0 0 0 0 0 0 0 0 0 0 0 0 0 0 -0 -0 -0 0 -0 0 0 -0
0 0 0 0 0 0 0 0 0 0 0 0 0 0 0 0 0 0 0 0 0 0 0 0 0 0 0 0 0 0 0 0 0 0 0 0 0 0 0 0 0 0 0 0 0 0 -0
0 0 0 0 0 0 0 0 0 0 0 0 0 0 0 0 0 0 0 0 0 0 0 0 0 0 0 0 0 0 0 0 0 0 0 0 0 0 0 0 0 0 0 0 0 0 -0
0 0 0 0 0 0 0 0 0 0 0 0 0 0 0 0 0 0 0 0 0 0 0 0 0 0 0 0 0 0 0 0 0 0 0 0 0 0 0 0 -0 0 0 0 0 0 0
0 0 0 0 0 0 0 0 0 0 0 0 0 0 0 0 0 0 0 0 0 0 0 0 0 0 0 0 0 0 0 0 0 0 0 0 0 0 0 0 0 0 0 0 0 0 0
0 0 0 0 0 0 0 0 0 0 0 0 0 0 0 0 0 0 0 0 0 0 0 0 0 0 0 0 0 0 0 0 0 0 0 0 0 0 0 0 0 0 0 0 0 0 0
0 0 0 0 0 0 0 0 0 0 0 0 0 0 0 0 0 0 0 0 0 0 0 0 0 0 0 0 0 0 0 0 0 0 0 0 0 0 0 0 0 0 0 0 0 0 0
Wind_Speed_500mb
28 25 21 17 13 11 10 7 4 2 2 4 5 7 8 10 9 6 4 2 2 6 11 26 13 6 12 21 19 20 27 28 26 11 19 20 25 15 8 9 15 11 1 10 12 9 21
28 29 23 19 15 12 10 9 6 3 0 4 2 6 7 8 7 6 9 4 1 3 5 13 27 9 5 16 19 20 24 26 35 35 29 21 21 28 18 10 10 8 15 15 17 11 9
28 33 26 21 17 15 13 11 8 5 1 4 6 5 7 7 6 5 13 9 4 2 7 8 6 4 32 19 20 17 17 24 34 31 29 30 18 3 10 8 7 6 4 9 24 27 5
30 32 29 26 22 19 16 13 9 7 5 4 5 6 8 9 9 6 12 4 3 6 5 4 8 14 13 18 18 13 13 20 22 21 32 32 15 23 11 10 11 9 8 8 5 27 11
35 34 33 32 26 21 18 16 12 9 7 7 4 6 8 9 10 4 4 8 6 9 7 6 6 8 7 11 14 17 15 18 18 19 19 16 28 20 10 8 9 14 2 6 12 12 10
35 38 34 33 31 25 22 20 16 12 10 8 6 5 9 9 9 8 7 8 7 3 2 6 8 7 9 9 13 11 17 13 8 7 8 15 17 9 10 12 2 4 6 8 7 10 12
35 37 35 34 33 30 25 24 20 15 14 9 9 4 8 9 7 7 4 8 8 5 18 17 12 13 11 12 17 10 7 13 14 15 8 18 16 6 6 5 2 2 2 6 7 5 11
36 36 38 36 34 37 30 28 25 20 15 14 9 6 6 10 8 9 5 6 5 16 19 18 17 12 15 13 6 15 9 8 14 7 3 12 7 9 8 14 9 6 4 7 12 7 6
43 40 37 39 35 39 36 32 30 24 16 17 10 9 5 9 8 6 2 6 16 13 9 8 12 11 8 13 14 25 13 9 10 11 11 12 2 6 9 13 9 4 4 8 7 13 1
52 48 41 37 38 42 40 36 33 30 21 19 13 11 6 4 8 2 3 9 6 2 9 6 6 7 10 3 8 23 15 5 9 8 6 9 9 5 9 11 6 5 4 7 9 8 2
60 54 49 43 38 46 42 40 36 35 29 21 13 15 7 3 8 3 5 5 4 1 6 1 5 3 10 7 4 16 21 10 7 6 7 2 4 9 10 5 4 11 8 6 3 2 4
69 62 57 51 43 48 47 45 41 38 35 25 18 18 9 8 6 4 6 6 8 11 9 3 2 6 3 10 7 5 7 14 9 9 12 2 1 6 1 4 7 11 2 7 6 2 6
71 68 62 57 54 50 50 48 46 41 40 29 22 19 12 10 7 5 8 9 9 7 8 4 2 4 4 7 5 8 9 9 6 9 6 11 6 4 7 7 5 16 8 6 10 8 8
77 73 65 61 57 53 56 53 49 46 42 34 28 22 14 11 9 9 9 9 4 3 10 1 3 4 5 2 3 4 4 4 8 9 6 6 11 8 11 8 2 6 4 9 9 4 10
79 82 74 67 62 60 58 54 53 52 44 39 31 24 16 12 11 11 7 7 13 11 10 16 6 5 3 1 3 6 2 6 6 8 9 7 8 7 5 5 9 9 8 2 10 3 5
77 92 81 77 70 64 60 57 62 54 49 41 34 23 18 17 15 12 7 10 6 5 12 4 11 5 9 7 6 6 7 5 8 6 9 5 5 5 5 6 8 6 4 5 6 5 9
77 94 98 86 79 73 67 66 63 60 54 42 36 18 14 25 19 7 7 12 8 9 8 9 10 9 7 10 11 9 7 3 6 8 10 6 7 10 2 2 8 5 5 2 3 5 7
48 56 80 98 90 84 76 74 72 68 59 48 30 10 16 33 9 4 6 11 10 9 9 3 7 5 13 12 8 7 11 3 15 13 4 7 6 5 11 5 7 5 5 5 7 11 1
36 39 40 78 97 96 88 85 78 75 74 70 29 12 22 43 9 5 5 2 8 9 11 10 11 5 2 10 1 4 7 3 16 9 10 8 3 6 14 8 8 5 6 4 7 4 10
39 37 35 22 76 106 98 92 88 84 84 66 31 7 11 30 12 11 10 6 7 14 7 10 8 10 8 3 5 10 6 5 11 6 8 9 4 10 10 9 8 6 10 11 9 5 5
35 38 35 38 6 67 100 105 100 99 97 83 35 17 28 10 12 13 12 12 13 14 11 17 3 10 14 8 5 10 6 4 3 14 8 7 6 4 8 3 5 7 9 17 18 11 12
33 39 48 51 38 27 32 104 107 107 100 81 35 20 26 19 23 38 16 19 23 10 18 13 11 21 15 15 16 20 15 11 11 9 11 4 2 5 9 6 2 12 21 21 16 10 21
43 28 44 58 64 46 32 12 117 105 116 52 70 55 42 29 14 19 27 30 21 22 28 16 31 14 16 16 10 3 13 18 26 15 12 11 9 5 10 3 11 14 15 26 10 10 20
50 43 44 43 60 66 51 43 33 123 122 91 61 55 35 9 22 20 19 44 23 43 15 12 19 16 15 40 50 40 41 35 25 19 10 11 8 5 7 9 6 10 9 12 15 11 32
26 53 48 48 50 40 65 51 52 33 133 140 82 59 35 19 36 23 27 16 23 21 9 18 20 17 63 31 8 9 9 9 7 10 7 3 9 5 3 6 14 3 10 17 15 16 40
32 28 43 53 47 57 46 65 67 40 35 137 83 77 46 28 30 51 29 41 12 11 7 5 16 66 50 8 6 12 12 10 6 8 11 7 10 7 5 6 11 9 6 18 12 10 19
33 31 32 48 54 55 51 50 49 58 63 52 60 51 74 25 40 67 28 31 34 22 8 14 22 25 23 4 5 8 9 4 11 19 12 5 4 10 5 6 18 14 23 24 10 12 17
34 34 33 35 54 52 57 54 52 46 50 65 64 63 61 43 36 73 77 49 36 47 13 32 17 4 4 8 9 9 8 17 8 9 15 17 17 9 7 3 18 33 19 17 8 9 16
33 32 33 32 50 52 54 58 57 55 44 56 55 68 55 56 21 61 78 85 85 85 64 70 27 30 36 8 3 6 5 4 10 9 4 10 15 14 22 16 4 72 11 41 14 17 19
Wind_Direction_500mb
215 209 197 186 188 186 174 183 166 158 344 343 31 25 21 17 23 39 16 212 67 68 84 42 58 82 77 77 59 53 48 59 63 104 74 85 74 85 102 112 74 77 204 42 42 81 95
223 220 203 192 193 198 198 187 187 183 311 312 1 355 9 12 18 49 10 331 155 20 174 77 64 63 112 77 66 61 64 79 74 70 73 78 84 95 86 65 69 108 102 37 32 33 73
222 218 213 203 199 198 209 199 195 191 213 298 322 344 343 344 3 340 343 299 195 66 123 137 205 72 69 74 63 69 83 89 77 72 73 69 74 74 107 77 83 89 79 32 12 349 44
221 216 213 216 204 204 211 215 210 204 217 246 293 315 329 328 341 354 11 70 121 110 130 125 89 86 76 68 60 75 109 88 77 80 76 63 90 78 57 108 33 37 50 23 348 15 342
232 221 219 219 214 208 213 218 222 220 221 253 247 292 310 323 331 322 49 31 117 82 79 76 66 105 73 63 70 78 99 108 94 85 76 65 60 56 42 65 24 16 0 340 331 23 330
231 233 222 216 219 213 216 218 224 230 232 246 231 272 302 321 328 318 260 82 90 244 122 76 66 96 68 27 52 69 76 97 135 112 54 49 54 55 27 47 176 332 354 326 286 319 358
240 232 225 216 218 220 219 226 224 224 240 246 260 244 291 311 328 323 276 198 273 59 79 72 64 87 74 70 51 32 57 81 85 67 63 39 64 31 52 8 280 222 252 297 278 283 355
236 234 232 221 224 226 216 229 229 223 229 246 249 259 280 307 307 337 289 247 213 136 89 67 71 74 55 45 44 59 76 77 52 75 11 36 61 292 130 49 64 44 343 310 274 269 352
235 236 233 233 221 230 222 220 232 232 221 238 248 256 267 301 289 351 63 133 135 129 88 46 50 45 22 44 40 18 42 76 88 53 43 115 253 332 91 57 25 24 38 318 268 323 86
235 236 236 231 230 228 226 221 229 233 221 231 247 252 256 306 269 246 124 140 137 120 74 319 2 31 8 72 56 36 40 57 46 135 97 84 341 51 82 82 47 312 189 296 298 9 324
234 235 235 238 237 231 229 221 222 234 229 224 221 246 242 203 273 220 207 178 165 60 29 0 2 48 39 66 108 23 35 51 63 60 88 228 25 23 71 90 95 238 347 278 289 343 28
229 232 236 240 234 240 231 223 217 226 233 224 211 241 216 221 229 206 154 143 126 44 261 341 337 6 52 42 36 16 58 73 76 54 30 74 132 72 154 277 169 302 52 34 29 45 32
229 231 235 236 240 237 230 228 219 219 226 223 223 231 218 208 202 197 146 132 36 142 2 255 143 68 74 22 43 44 19 35 83 47 332 344 347 353 34 41 50 35 45 348 347 14 214
228 230 232 234 234 232 236 229 223 215 222 219 216 222 226 217 192 162 151 60 122 218 210 212 105 79 111 335 42 69 52 85 115 102 98 132 331 354 342 90 166 358 79 135 253 322 280
229 230 230 230 231 231 231 227 221 216 216 214 213 219 210 202 203 164 151 82 214 200 151 148 57 98 320 243 127 86 349 190 148 143 161 113 311 316 67 114 104 316 33 139 111 8 344
239 240 229 230 230 229 224 225 223 216 212 211 204 206 208 194 205 166 91 228 229 147 125 158 161 153 186 214 160 183 200 176 145 121 151 178 41 289 281 145 83 105 170 17 2 22 317
222 230 231 226 227 228 223 225 220 213 210 202 196 193 208 184 187 198 165 222 221 194 172 156 186 136 207 189 191 191 184 184 173 119 100 133 117 286 330 345 143 40 355 56 101 126 171
227 232 225 231 227 225 224 218 215 212 200 197 189 162 182 181 133 147 188 193 163 168 180 139 119 126 176 166 167 214 196 203 166 147 124 202 146 139 238 211 110 135 230 164 125 279 189
252 219 236 228 230 225 220 217 215 207 203 185 179 138 178 179 163 212 285 227 187 154 198 171 170 170 120 167 155 170 143 116 157 142 163 190 325 27 339 7 7 169 187 148 93 57 209
257 252 248 233 227 228 218 215 211 208 201 192 164 138 167 198 179 141 148 223 204 211 180 157 138 125 106 75 45 183 161 163 165 150 131 131 90 166 197 199 128 187 174 173 137 121 197
250 259 255 251 175 224 227 213 212 206 200 194 185 204 191 189 221 158 183 171 165 198 216 180 98 213 159 141 43 191 152 126 115 163 128 133 211 159 263 281 287 240 188 171 186 208 182
236 240 247 248 245 188 203 221 214 208 199 190 190 168 174 161 164 179 187 202 195 177 155 212 196 188 178 169 188 196 150 190 190 165 163 152 202 102 293 353 264 261 225 197 194 222 273
242 231 241 244 244 252 244 241 219 212 198 194 204 203 191 175 160 174 206 202 201 153 214 202 193 129 189 209 163 116 155 147 149 143 165 157 136 87 272 326 307 298 220 191 167 191 201
243 243 237 234 234 239 251 257 217 213 211 204 201 194 185 209 198 197 176 197 191 203 217 172 174 157 158 142 110 96 83 84 84 61 128 140 104 82 258 351 344 235 149 198 186 220 216
259 238 237 239 229 240 235 243 247 215 212 208 205 196 195 213 198 204 185 158 164 174 159 175 179 183 154 135 84 66 355 24 353 28 10 105 128 80 151 213 294 195 188 160 163 272 207
269 267 244 239 237 236 240 237 241 240 220 212 214 206 208 205 211 198 187 180 158 158 116 171 162 156 162 129 134 164 194 179 259 1 9 80 74 118 88 167 220 243 168 179 152 297 188
260 268 271 243 240 228 234 232 230 231 227 230 233 228 220 245 218 194 189 196 191 144 121 139 139 178 178 142 138 167 216 163 174 169 170 116 51 180 165 245 285 236 155 155 91 238 178
255 264 267 267 237 237 232 232 226 223 231 225 242 232 244 238 229 209 206 195 169 179 151 158 113 215 122 198 187 192 162 207 129 159 175 163 152 190 95 115 274 158 126 175 207 156 172
247 258 267 278 240 231 227 230 226 216 202 214 234 230 247 241 235 222 220 218 225 224 192 169 186 162 179 172 220 127 168 149 144 209 131 209 186 177 192 209 232 180 196 202 191 178 179
Wind_Speed_850mb
28 25 21 17 13 11 10 7 4 2 2 4 5 7 8 10 9 6 4 2 2 6 11 26 13 6 12 21 19 20 27 28 26 11 19 20 25 15 8 9 15 11 1 10 12 9 21
28 29 23 19 15 12 10 9 6 3 0 4 2 6 7 8 7 6 9 4 1 3 5 13 27 9 5 16 19 20 24 26 35 35 29 21 21 28 18 10 10 8 15 15 17 11 9
28 33 26 21 17 15 13 11 8 5 1 4 6 5 7 7 6 5 13 9 4 2 7 8 6 4 32 19 20 17 17 24 34 31 29 30 18 3 10 8 7 6 4 9 24 27 5
30 32 29 26 22 19 16 13 9 7 5 4 5 6 8 9 9 6 12 4 3 6 5 4 8 14 13 18 18 13 13 20 22 21 32 32 15 23 11 10 11 9 8 8 5 27 11
35 34 33 32 26 21 18 16 12 9 7 7 4 6 8 9 10 4 4 8 6 9 7 6 6 8 7 11 14 17 15 18 18 19 19 16 28 20 10 8 9 14 2 6 12 12 10
35 38 34 33 31 25 22 20 16 12 10 8 6 5 9 9 9 8 7 8 7 3 2 6 8 7 9 9 13 11 17 13 8 7 8 15 17 9 10 12 2 4 6 8 7 10 12
35 37 35 34 33 30 25 24 20 15 14 9 9 4 8 9 7 7 4 8 8 5 18 17 12 13 11 12 17 10 7 13 14 15 8 18 16 6 6 5 2 2 2 6 7 5 11
36 36 38 36 34 37 30 28 25 20 15 14 9 6 6 10 8 9 5 6 5 16 19 18 17 12 15 13 6 15 9 8 14 7 3 12 7 9 8 14 9 6 4 7 12 7 6
43 40 37 39 35 39 36 32 30 24 16 17 10 9 5 9 8 6 2 6 16 13 9 8 12 11 8 13 14 25 13 9 10 11 11 12 2 6 9 13 9 4 4 8 7 13 1
52 48 41 37 38 42 40 36 33 30 21 19 13 11 6 4 8 2 3 9 6 2 9 6 6 7 10 3 8 23 15 5 9 8 6 9 9 5 9 11 6 5 4 7 9 8 2
60 54 49 43 38 46 42 40 36 35 29 21 13 15 7 3 8 3 5 5 4 1 6 1 5 3 10 7 4 16 21 10 7 6 7 2 4 9 10 5 4 11 8 6 3 2 4
69 62 57 51 43 48 47 45 41 38 35 25 18 18 9 8 6 4 6 6 8 11 9 3 2 6 3 10 7 5 7 14 9 9 12 2 1 6 1 4 7 11 2 7 6 2 6
71 68 62 57 54 50 50 48 46 41 40 29 22 19 12 10 7 5 8 9 9 7 8 4 2 4 4 7 5 8 9 9 6 9 6 11 6 4 7 7 5 16 8 6 10 8 8
77 73 65 61 57 53 56 53 49 46 42 34 28 22 14 11 9 9 9 9 4 3 10 1 3 4 5 2 3 4 4 4 8 9 6 6 11 8 11 8 2 6 4 9 9 4 10
79 82 74 67 62 60 58 54 53 52 44 39 31 24 16 12 11 11 7 7 13 11 10 16 6 5 3 1 3 6 2 6 6 8 9 7 8 7 5 5 9 9 8 2 10 3 5
77 92 81 77 70 64 60 57 62 54 49 41 34 23 18 17 15 12 7 10 6 5 12 4 11 5 9 7 6 6 7 5 8 6 9 5 5 5 5 6 8 6 4 5 6 5 9
77 94 98 86 79 73 67 66 63 60 54 42 36 18 14 25 19 7 7 12 8 9 8 9 10 9 7 10 11 9 7 3 6 8 10 6 7 10 2 2 8 5 5 2 3 5 7
48 56 80 98 90 84 76 74 72 68 59 48 30 10 16 33 9 4 6 11 10 9 9 3 7 5 13 12 8 7 11 3 15 13 4 7 6 5 11 5 7 5 5 5 7 11 1
36 39 40 78 97 96 88 85 78 75 74 70 29 12 22 43 9 5 5 2 8 9 11 10 11 5 2 10 1 4 7 3 16 9 10 8 3 6 14 8 8 5 6 4 7 4 10
39 37 35 22 76 106 98 92 88 84 84 66 31 7 11 30 12 11 10 6 7 14 7 10 8 10 8 3 5 10 6 5 11 6 8 9 4 10 10 9 8 6 10 11 9 5 5
35 38 35 38 6 67 100 105 100 99 97 83 35 17 28 10 12 13 12 12 13 14 11 17 3 10 14 8 5 10 6 4 3 14 8 7 6 4 8 3 5 7 9 17 18 11 12
33 39 48 51 38 27 32 104 107 107 100 81 35 20 26 19 23 38 16 19 23 10 18 13 11 21 15 15 16 20 15 11 11 9 11 4 2 5 9 6 2 12 21 21 16 10 21
43 28 44 58 64 46 32 12 117 105 116 52 70 55 42 29 14 19 27 30 21 22 28 16 31 14 16 16 10 3 13 18 26 15 12 11 9 5 10 3 11 14 15 26 10 10 20
50 43 44 43 60 66 51 43 33 123 122 91 61 55 35 9 22 20 19 44 23 43 15 12 19 16 15 40 50 40 41 35 25 19 10 11 8 5 7 9 6 10 9 12 15 11 32
26 53 48 48 50 40 65 51 52 33 133 140 82 59 35 19 36 23 27 16 23 21 9 18 20 17 63 31 8 9 9 9 7 10 7 3 9 5 3 6 14 3 10 17 15 16 40
32 28 43 53 47 57 46 65 67 40 35 137 83 77 46 28 30 51 29 41 12 11 7 5 16 66 50 8 6 12 12 10 6 8 11 7 10 7 5 6 11 9 6 18 12 10 19
33 31 32 48 54 55 51 50 49 58 63 52 60 51 74 25 40 67 28 31 34 22 8 14 22 25 23 4 5 8 9 4 11 19 12 5 4 10 5 6 18 14 23 24 10 12 17
34 34 33 35 54 52 57 54 52 46 50 65 64 63 61 43 36 73 77 49 36 47 13 32 17 4 4 8 9 9 8 17 8 9 15 17 17 9 7 3 18 33 19 17 8 9 16
33 32 33 32 50 52 54 58 57 55 44 56 55 68 55 56 21 61 78 85 85 85 64 70 27 30 36 8 3 6 5 4 10 9 4 10 15 14 22 16 4 72 11 41 14 17 19
Wind_Direction_850mb
215 209 197 186 188 186 174 183 166 158 344 343 31 25 21 17 23 39 16 212 67 68 84 42 58 82 77 77 59 53 48 59 63 104 74 85 74 85 102 112 74 77 204 42 42 81 95
223 220 203 192 193 198 198 187 187 183 311 312 1 355 9 12 18 49 10 331 155 20 174 77 64 63 112 77 66 61 64 79 74 70 73 78 84 95 86 65 69 108 102 37 32 33 73
222 218 213 203 199 198 209 199 195 191 213 298 322 344 343 344 3 340 343 299 195 66 123 137 205 72 69 74 63 69 83 89 77 72 73 69 74 74 107 77 83 89 79 32 12 349 44
221 216 213 216 204 204 211 215 210 204 217 246 293 315 329 328 341 354 11 70 121 110 130 125 89 86 76 68 60 75 109 88 77 80 76 63 90 78 57 108 33 37 50 23 348 15 342
232 221 219 219 214 208 213 218 222 220 221 253 247 292 310 323 331 322 49 31 117 82 79 76 66 105 73 63 70 78 99 108 94 85 76 65 60 56 42 65 24 16 0 340 331 23 330
231 233 222 216 219 213 216 218 224 230 232 246 231 272 302 321 328 318 260 82 90 244 122 76 66 96 68 27 52 69 76 97 135 112 54 49 54 55 27 47 176 332 354 326 286 319 358
240 232 225 216 218 220 219 226 224 224 240 246 260 244 291 311 328 323 276 198 273 59 79 72 64 87 74 70 51 32 57 81 85 67 63 39 64 31 52 8 280 222 252 297 278 283 355
236 234 232 221 224 226 216 229 229 223 229 246 249 259 280 307 307 337 289 247 213 136 89 67 71 74 55 45 44 59 76 77 52 75 11 36 61 292 130 49 64 44 343 310 274 269 352
235 236 233 233 221 230 222 220 232 232 221 238 248 256 267 301 289 351 63 133 135 129 88 46 50 45 22 44 40 18 42 76 88 53 43 115 253 332 91 57 25 24 38 318 268 323 86
235 236 236 231 230 228 226 221 229 233 221 231 247 252 256 306 269 246 124 140 137 120 74 319 2 31 8 72 56 36 40 57 46 135 97 84 341 51 82 82 47 312 189 296 298 9 324
234 235 235 238 237 231 229 221 222 234 229 224 221 246 242 203 273 220 207 178 165 60 29 0 2 48 39 66 108 23 35 51 63 60 88 228 25 23 71 90 95 238 347 278 289 343 28
229 232 236 240 234 240 231 223 217 226 233 224 211 241 216 221 229 206 154 143 126 44 261 341 337 6 52 42 36 16 58 73 76 54 30 74 132 72 154 277 169 302 52 34 29 45 32
229 231 235 236 240 237 230 228 219 219 226 223 223 231 218 208 202 197 146 132 36 142 2 255 143 68 74 22 43 44 19 35 83 47 332 344 347 353 34 41 50 35 45 348 347 14 214
228 230 232 234 234 232 236 229 223 215 222 219 216 222 226 217 192 162 151 60 122 218 210 212 105 79 111 335 42 69 52 85 115 102 98 132 331 354 342 90 166 358 79 135 253 322 280
229 230 230 230 231 231 231 227 221 216 216 214 213 219 210 202 203 164 151 82 214 200 151 148 57 98 320 243 127 86 349 190 148 143 161 113 311 316 67 114 104 316 33 139 111 8 344
239 240 229 230 230 229 224 225 223 216 212 211 204 206 208 194 205 166 91 228 229 147 125 158 161 153 186 214 160 183 200 176 145 121 151 178 41 289 281 145 83 105 170 17 2 22 317
222 230 231 226 227 228 223 225 220 213 210 202 196 193 208 184 187 198 165 222 221 194 172 156 186 136 207 189 191 191 184 184 173 119 100 133 117 286 330 345 143 40 355 56 101 126 171
227 232 225 231 227 225 224 218 215 212 200 197 189 162 182 181 133 147 188 193 163 168 180 139 119 126 176 166 167 214 196 203 166 147 124 202 146 139 238 211 110 135 230 164 125 279 189
252 219 236 228 230 225 220 217 215 207 203 185 179 138 178 179 163 212 285 227 187 154 198 171 170 170 120 167 155 170 143 116 157 142 163 190 325 27 339 7 7 169 187 148 93 57 209
257 252 248 233 227 228 218 215 211 208 201 192 164 138 167 198 179 141 148 223 204 211 180 157 138 125 106 75 45 183 161 163 165 150 131 131 90 166 197 199 128 187 174 173 137 121 197
250 259 255 251 175 224 227 213 212 206 200 194 185 204 191 189 221 158 183 171 165 198 216 180 98 213 159 141 43 191 152 126 115 163 128 133 211 159 263 281 287 240 188 171 186 208 182
236 240 247 248 245 188 203 221 214 208 199 190 190 168 174 161 164 179 187 202 195 177 155 212 196 188 178 169 188 196 150 190 190 165 163 152 202 102 293 353 264 261 225 197 194 222 273
242 231 241 244 244 252 244 241 219 212 198 194 204 203 191 175 160 174 206 202 201 153 214 202 193 129 189 209 163 116 155 147 149 143 165 157 136 87 272 326 307 298 220 191 167 191 201
243 243 237 234 234 239 251 257 217 213 211 204 201 194 185 209 198 197 176 197 191 203 217 172 174 157 158 142 110 96 83 84 84 61 128 140 104 82 258 351 344 235 149 198 186 220 216
259 238 237 239 229 240 235 243 247 215 212 208 205 196 195 213 198 204 185 158 164 174 159 175 179 183 154 135 84 66 355 24 353 28 10 105 128 80 151 213 294 195 188 160 163 272 207
269 267 244 239 237 236 240 237 241 240 220 212 214 206 208 205 211 198 187 180 158 158 116 171 162 156 162 129 134 164 194 179 259 1 9 80 74 118 88 167 220 243 168 179 152 297 188
260 268 271 243 240 228 234 232 230 231 227 230 233 228 220 245 218 194 189 196 191 144 121 139 139 178 178 142 138 167 216 163 174 169 170 116 51 180 165 245 285 236 155 155 91 238 178
255 264 267 267 237 237 232 232 226 223 231 225 242 232 244 238 229 209 206 195 169 179 151 158 113 215 122 198 187 192 162 207 129 159 175 163 152 190 95 115 274 158 126 175 207 156 172
247 258 267 278 240 231 227 230 226 216 202 214 234 230 247 241 235 222 220 218 225 224 192 169 186 162 179 172 220 127 168 149 144 209 131 209 186 177 192 209 232 180 196 202 191 178 179